Starlink 31116

operational
NORAD ID: 58947 Int'l Des: 2024-027 Owner: SPXS Country: US Constellation: starlink
LEOCIRCULAR

About Starlink 31116

Description loading...

Live Position

Loading 3D Globe...

Upcoming Passes

Altitude History

Altitude vs Time

uPlot chart will show altitude changes over time

Two-Line Element Set

1 58947U 24027S 25306.36716696 .00001665 00000-0 68349-4 0 9990
2 58947 53.1597 181.0958 0001270 96.5471 263.5675 15.30195492 97839
Epoch: Nov 2, 2025 • Age: 14 hours

Current Status

Altitude 492.2 km
Velocity 7.62 km/s
Sub-Earth Point -47.13°S, 103.1°E
Launch Date Feb 10, 2024
Age 1.7 years
Type internet

Technical Details

Classification Payload
Mass 730.00 kg
Dry Mass 700.00 kg
Total Mass 730.00 kg
Length 0.30 m
Diameter 4.10 m
Span 29.00 m
Shape Box + pan
Manufacturer SPXS
Bus Type Starlink V2M
Phase Status In Orbit
Owner/State SPXS/US

Large Constellations

Loading constellations...